Location: Utrecht
(52.0907°N, 5.1214°E)
Time: 18:10:41
(UTC+02:00)

DIWATA 2B (PO-101) - Pass Details

Date: 05 July 2022
Orbit: 583 x 599 km, 98.0° (Epoch: 07 August)

Event Time Altitude Azimuth Distance (km) Brightness Sun altitude
Exits shadow 04:13:08 10° 204° (SSW) 1,910 ? -8.3°
Maximum altitude 04:16:44 29° 265° (W) 1,112 ? -8.0°
Drops below altitude 10° 04:20:27 10° 326° (NW) 1,951 ? -7.7°
Sets 04:22:52 0° 338° (NNW) 2,858 ? -7.5°
